QPF
0.01 0.02 0.03 0.04 0.03 0.03 0.04 0.04 0.05 0.05 0.05 0.05 0.05 0.05 0.02 0.02 0.05 0.10 0.07 0.08 0.11 0.08 0.08 0.10 0.12 0.13 0.11 0.08 0.07 0.06 0.06 0.07 0.07 0.08 0.09 0.09 0.08 0.09 0.08 0.08 0.08 0.08 0.06 0.06 0.07 0.07 0.08 0.06 0.05
0.01 0.02 0.03 0.04 0.02 0.03 0.03 0.03 0.04 0.04 0.02 0.02 0.02 0.03 0.04 0.03 0.05 0.07 0.04 0.07 0.10 0.07 0.07 0.08 0.09 0.11 0.11 0.08 0.07 0.06 0.05 0.06 0.06 0.07 0.07 0.08 0.09 0.10 0.09 0.08 0.07 0.08 0.08 0.09 0.09 0.09 0.08 0.06 0.04
0.01 0.02 0.02 0.02 0.01 0.02 0.02 0.04 0.05 0.03 0.02 0.02 0.01 0.02 0.04 0.05 0.05 0.05 0.04 0.05 0.05 0.04 0.05 0.08 0.10 0.12 0.11 0.08 0.07 0.06 0.06 0.06 0.07 0.07 0.08 0.07 0.10 0.13 0.11 0.10 0.10 0.11 0.11 0.11 0.10 0.09 0.07 0.06 0.04
0.02 0.02 0.02 0.01 0.01 0.02 0.02 0.03 0.04 0.03 0.03 0.02 0.02 0.03 0.04 0.05 0.05 0.04 0.04 0.04 0.03 0.03 0.05 0.07 0.10 0.12 0.09 0.07 0.06 0.07 0.08 0.09 0.10 0.08 0.08 0.08 0.10 0.14 0.13 0.11 0.11 0.12 0.12 0.11 0.11 0.08 0.07 0.07 0.05
0.03 0.04 0.01 0.01 0.01 0.03 0.03 0.02 0.01 0.02 0.02 0.02 0.02 0.03 0.05 0.06 0.03 0.03 0.04 0.04 0.02 0.03 0.04 0.07 0.10 0.14 0.12 0.11 0.09 0.09 0.09 0.08 0.07 0.08 0.09 0.10 0.10 0.11 0.12 0.12 0.09 0.08 0.07 0.08 0.11 0.08 0.07 0.07 0.06
0.02 0.03 0.02 0.02 0.02 0.02 0.04 0.03 0.01 0.01 0.01 0.01 0.02 0.03 0.07 0.07 0.03 0.02 0.03 0.03 0.03 0.03 0.03 0.05 0.10 0.17 0.18 0.17 0.13 0.11 0.09 0.07 0.06 0.07 0.08 0.10 0.10 0.13 0.14 0.13 0.10 0.08 0.06 0.06 0.12 0.18 0.14 0.15 0.09
0.02 0.02 0.02 0.03 0.03 0.03 0.04 0.01 0.01 0.01 0.01 0.01 0.02 0.03 0.07 0.07 0.05 0.03 0.04 0.03 0.04 0.03 0.03 0.03 0.06 0.12 0.15 0.14 0.12 0.11 0.12 0.09 0.07 0.06 0.06 0.10 0.12 0.13 0.13 0.13 0.12 0.08 0.06 0.07 0.13 0.28 0.35 0.30 0.17
0.01 0.01 0.01 0.02 0.02 0.03 0.02 0.01 0.01 0.01 0.01 0.01 0.01 0.02 0.04 0.06 0.05 0.04 0.04 0.04 0.04 0.04 0.02 0.02 0.04 0.06 0.07 0.09 0.11 0.12 0.14 0.09 0.06 0.05 0.05 0.09 0.10 0.10 0.10 0.09 0.10 0.07 0.06 0.07 0.10 0.17 0.33 0.32 0.23
0.01 0.01 0.01 0.01 0.02 0.02 0.01 0.01 0.01 0.01 0.01 0.01 0.00 0.01 0.02 0.03 0.03 0.02 0.02 0.02 0.03 0.02 0.02 0.02 0.02 0.04 0.06 0.07 0.09 0.12 0.12 0.08 0.07 0.07 0.08 0.10 0.08 0.05 0.05 0.06 0.08 0.05 0.05 0.08 0.08 0.10 0.18 0.21 0.16
0.00 0.01 0.01 0.01 0.01 0.01 0.01 0.00 0.01 0.01 0.01 0.01 0.01 0.01 0.02 0.03 0.03 0.03 0.02 0.01 0.01 0.01 0.01 0.02 0.03 0.03 0.04 0.05 0.06 0.08 0.09 0.07 0.05 0.05 0.05 0.06 0.04 0.03 0.04 0.07 0.08 0.08 0.07 0.09 0.09 0.10 0.09 0.08 0.06
0.00 0.00 0.00 0.00 0.01 0.01 0.01 0.01 0.01 0.01 0.02 0.01 0.01 0.01 0.02 0.02 0.03 0.03 0.02 0.02 0.01 0.01 0.01 0.02 0.03 0.04 0.04 0.05 0.04 0.04 0.05 0.05 0.05 0.05 0.05 0.04 0.03 0.04 0.05 0.05 0.05 0.05 0.05 0.04 0.04 0.04 0.03 0.02 0.03
0.00 0.00 0.00 0.00 0.00 0.01 0.01 0.01 0.01 0.01 0.01 0.01 0.01 0.01 0.01 0.01 0.03 0.04 0.04 0.02 0.02 0.02 0.01 0.03 0.04 0.05 0.04 0.05 0.04 0.04 0.04 0.04 0.05 0.05 0.05 0.04 0.03 0.03 0.02 0.03 0.02 0.01 0.01 0.01 0.01 0.01 0.02 0.02 0.02
0.00 0.00 0.00 0.00 0.00 0.00 0.00 0.00 0.01 0.01 0.01 0.01 0.01 0.01 0.00 0.01 0.02 0.04 0.03 0.02 0.02 0.03 0.05 0.05 0.05 0.05 0.03 0.03 0.03 0.03 0.03 0.03 0.04 0.05 0.05 0.05 0.04 0.02 0.02 0.02 0.03 0.03 0.03 0.03 0.03 0.03 0.02 0.03 0.02
0.00 0.00 0.00 0.00 0.00 0.00 0.00 0.00 0.01 0.01 0.01 0.00 0.01 0.01 0.00 0.00 0.01 0.02 0.02 0.03 0.04 0.06 0.07 0.06 0.04 0.03 0.03 0.02 0.02 0.03 0.02 0.02 0.03 0.04 0.03 0.04 0.04 0.05 0.04 0.03 0.05 0.05 0.04 0.04 0.05 0.06 0.03 0.03 0.03
0.00 0.00 0.00 0.00 0.00 0.00 0.00 0.00 0.00 0.00 0.00 0.01 0.01 0.00 0.00 0.00 0.00 0.01 0.01 0.03 0.04 0.07 0.09 0.05 0.04 0.03 0.03 0.03 0.03 0.02 0.02 0.02 0.04 0.05 0.03 0.02 0.03 0.04 0.05 0.06 0.07 0.06 0.06 0.06 0.04 0.04 0.03 0.03 0.03
0.00 0.00 0.00 0.00 0.00 0.00 0.00 0.00 0.00 0.00 0.00 0.00 0.00 0.00 0.00 0.00 0.00 0.00 0.01 0.03 0.04 0.06 0.06 0.04 0.03 0.03 0.03 0.03 0.04 0.03 0.02 0.03 0.03 0.03 0.03 0.03 0.03 0.02 0.03 0.04 0.05 0.04 0.04 0.04 0.04 0.04 0.06 0.05 0.04
0.00 0.00 0.00 0.00 0.00 0.00 0.00 0.00 0.00 0.00 0.00 0.00 0.00 0.00 0.00 0.00 0.00 0.00 0.01 0.02 0.03 0.03 0.03 0.04 0.04 0.04 0.03 0.03 0.04 0.04 0.03 0.03 0.02 0.03 0.04 0.03 0.03 0.02 0.03 0.03 0.03 0.02 0.02 0.02 0.03 0.03 0.04 0.06 0.05
0.01 0.00 0.00 0.00 0.00 0.00 0.00 0.00 0.00 0.00 0.00 0.00 0.00 0.00 0.00 0.00 0.00 0.00 0.00 0.01 0.01 0.02 0.03 0.04 0.04 0.03 0.03 0.03 0.03 0.03 0.04 0.03 0.04 0.04 0.03 0.02 0.02 0.02 0.02 0.02 0.02 0.01 0.01 0.02 0.01 0.03 0.04 0.06 0.06
0.00 0.00 0.00 0.00 0.01 0.00 0.01 0.00 0.00 0.00 0.00 0.00 0.00 0.00 0.00 0.00 0.01 0.01 0.01 0.01 0.01 0.02 0.03 0.04 0.04 0.03 0.02 0.02 0.02 0.03 0.03 0.03 0.03 0.03 0.03 0.02 0.02 0.01 0.01 0.01 0.02 0.02 0.02 0.01 0.01 0.02 0.04 0.04 0.05
0.00 0.00 0.01 0.00 0.01 0.01 0.01 0.00 0.00 0.00 0.00 0.00 0.00 0.00 0.00 0.00 0.00 0.01 0.01 0.01 0.01 0.02 0.02 0.03 0.03 0.03 0.02 0.02 0.02 0.03 0.02 0.02 0.02 0.03 0.03 0.02 0.02 0.02 0.02 0.01 0.01 0.01 0.01 0.02 0.02 0.03 0.02 0.02 0.03
0.00 0.00 0.01 0.01 0.01 0.01 0.00 0.00 0.00 0.00 0.00 0.00 0.00 0.00 0.00 0.00 0.00 0.00 0.01 0.01 0.01 0.01 0.02 0.02 0.02 0.02 0.02 0.02 0.02 0.02 0.02 0.02 0.02 0.02 0.02 0.02 0.01 0.02 0.02 0.01 0.01 0.01 0.02 0.02 0.03 0.03 0.01 0.01 0.02
0.01 0.01 0.01 0.01 0.01 0.01 0.00 0.00 0.00 0.00 0.00 0.00 0.00 0.00 0.00 0.00 0.00 0.00 0.00 0.00 0.01 0.01 0.02 0.03 0.02 0.02 0.02 0.02 0.02 0.02 0.02 0.01 0.01 0.01 0.01 0.01 0.02 0.02 0.01 0.01 0.01 0.02 0.03 0.02 0.02 0.02 0.01 0.01 0.01
0.01 0.01 0.01 0.01 0.01 0.00 0.00 0.00 0.00 0.00 0.00 0.00 0.00 0.00 0.00 0.00 0.00 0.00 0.00 0.00 0.00 0.01 0.02 0.04 0.03 0.03 0.02 0.02 0.02 0.01 0.01 0.01 0.01 0.01 0.00 0.01 0.01 0.02 0.01 0.01 0.01 0.02 0.02 0.02 0.01 0.01 0.01 0.01 0.02
0.01 0.01 0.01 0.01 0.00 0.00 0.00 0.00 0.00 0.00 0.00 0.00 0.00 0.00 0.00 0.00 0.00 0.00 0.00 0.00 0.00 0.01 0.02 0.05 0.05 0.03 0.03 0.02 0.01 0.01 0.01 0.00 0.01 0.01 0.00 0.00 0.00 0.01 0.00 0.01 0.01 0.01 0.01 0.01 0.01 0.02 0.02 0.01 0.01
0.01 0.01 0.01 0.00 0.00 0.00 0.00 0.00 0.00 0.00 0.00 0.00 0.00 0.00 0.01 0.00 0.00 0.00 0.00 0.00 0.00 0.00 0.01 0.04 0.05 0.03 0.02 0.01 0.01 0.00 0.00 0.00 0.00 0.00 0.00 0.00 0.00 0.00 0.00 0.01 0.01 0.01 0.01 0.01 0.01 0.02 0.02 0.02 0.02
0.00 0.00 0.00 0.00 0.00 0.00 0.00 0.00 0.00 0.00 0.00 0.00 0.00 0.00 0.01 0.01 0.01 0.00 0.00 0.00 0.00 0.00 0.01 0.02 0.02 0.02 0.01 0.01 0.00 0.01 0.01 0.00 0.00 0.00 0.00 0.00 0.01 0.01 0.01 0.01 0.01 0.02 0.01 0.01 0.01 0.02 0.02 0.02 0.02
0.00 0.00 0.00 0.00 0.00 0.00 0.00 0.00 0.00 0.00 0.00 0.00 0.00 0.01 0.01 0.01 0.01 0.00 0.00 0.00 0.00 0.01 0.01 0.01 0.01 0.01 0.00 0.00 0.00 0.01 0.00 0.00 0.00 0.00 0.00 0.01 0.01 0.01 0.01 0.01 0.01 0.01 0.01 0.01 0.02 0.02 0.02 0.02 0.02
0.00 0.01 0.00 0.00 0.00 0.00 0.00 0.00 0.00 0.00 0.00 0.00 0.00 0.01 0.01 0.00 0.01 0.01 0.01 0.01 0.01 0.00 0.01 0.01 0.01 0.01 0.00 0.00 0.00 0.00 0.00 0.00 0.00 0.00 0.00 0.00 0.00 0.01 0.01 0.01 0.01 0.01 0.02 0.02 0.02 0.02 0.02 0.02 0.01
0.01 0.01 0.01 0.00 0.00 0.00 0.00 0.00 0.00 0.00 0.00 0.00 0.00 0.00 0.00 0.00 0.00 0.01 0.01 0.01 0.01 0.01 0.01 0.01 0.01 0.01 0.01 0.01 0.01 0.01 0.00 0.00 0.00 0.00 0.00 0.00 0.00 0.00 0.01 0.01 0.01 0.01 0.02 0.02 0.01 0.00 0.01 0.02 0.02
0.01 0.01 0.00 0.00 0.00 0.00 0.00 0.00 0.00 0.00 0.00 0.00 0.00 0.00 0.00 0.00 0.00 0.00 0.01 0.01 0.01 0.00 0.00 0.01 0.01 0.01 0.01 0.02 0.02 0.01 0.00 0.01 0.00 0.00 0.00 0.00 0.00 0.00 0.01 0.00 0.00 0.00 0.00 0.01 0.01 0.01 0.01 0.02 0.02
MSLP
1003.56 1004.73 1006.22 1007.86 1009.47 1010.90 1012.01 1012.76 1013.17 1013.30 1013.28 1013.23 1013.21 1013.28 1013.40 1013.52 1013.57 1013.49 1013.24 1012.83 1012.33 1011.80 1011.32 1010.97 1010.79 1010.75 1010.84 1010.99 1011.14 1011.26 1011.30 1011.27 1011.19 1011.09 1011.00 1010.93 1010.90 1010.89 1010.91 1010.92 1010.92 1010.92 1010.91 1010.90 1010.89 1010.91 1010.96 1011.03 1011.13
1004.16 1005.52 1007.15 1008.84 1010.41 1011.71 1012.62 1013.11 1013.24 1013.11 1012.86 1012.63 1012.49 1012.50 1012.61 1012.76 1012.88 1012.88 1012.73 1012.44 1012.05 1011.64 1011.29 1011.07 1010.99 1011.06 1011.22 1011.42 1011.60 1011.71 1011.74 1011.69 1011.58 1011.46 1011.35 1011.30 1011.29 1011.32 1011.38 1011.44 1011.49 1011.51 1011.52 1011.51 1011.50 1011.51 1011.53 1011.59 1011.67
1005.04 1006.56 1008.25 1009.91 1011.37 1012.47 1013.13 1013.35 1013.22 1012.86 1012.43 1012.07 1011.87 1011.84 1011.97 1012.18 1012.36 1012.45 1012.40 1012.22 1011.95 1011.67 1011.43 1011.32 1011.34 1011.48 1011.69 1011.91 1012.09 1012.19 1012.18 1012.10 1011.96 1011.81 1011.70 1011.65 1011.65 1011.70 1011.78 1011.86 1011.93 1011.96 1011.98 1011.98 1011.98 1011.99 1012.02 1012.08 1012.17
1006.14 1007.75 1009.43 1011.00 1012.29 1013.16 1013.57 1013.56 1013.21 1012.68 1012.14 1011.72 1011.50 1011.49 1011.66 1011.92 1012.16 1012.32 1012.35 1012.25 1012.08 1011.88 1011.74 1011.70 1011.78 1011.95 1012.18 1012.39 1012.55 1012.61 1012.57 1012.45 1012.29 1012.14 1012.02 1011.97 1011.98 1012.03 1012.11 1012.19 1012.26 1012.30 1012.32 1012.33 1012.35 1012.38 1012.44 1012.52 1012.62
1007.30 1008.94 1010.56 1011.99 1013.08 1013.74 1013.93 1013.73 1013.24 1012.64 1012.07 1011.66 1011.47 1011.51 1011.73 1012.02 1012.31 1012.50 1012.57 1012.52 1012.39 1012.25 1012.16 1012.15 1012.25 1012.42 1012.62 1012.80 1012.91 1012.92 1012.85 1012.72 1012.55 1012.40 1012.30 1012.26 1012.27 1012.33 1012.40 1012.47 1012.52 1012.55 1012.58 1012.60 1012.65 1012.71 1012.80 1012.92 1013.05
1008.39 1010.00 1011.51 1012.77 1013.66 1014.12 1014.16 1013.85 1013.32 1012.72 1012.21 1011.87 1011.77 1011.87 1012.13 1012.44 1012.73 1012.92 1012.98 1012.93 1012.81 1012.69 1012.60 1012.60 1012.67 1012.81 1012.96 1013.07 1013.13 1013.10 1013.01 1012.87 1012.72 1012.60 1012.53 1012.51 1012.54 1012.60 1012.66 1012.71 1012.74 1012.76 1012.79 1012.83 1012.90 1013.00 1013.14 1013.29 1013.45
1009.30 1010.81 1012.17 1013.25 1013.96 1014.27 1014.21 1013.87 1013.38 1012.87 1012.47 1012.26 1012.26 1012.43 1012.71 1013.02 1013.27 1013.42 1013.44 1013.36 1013.22 1013.08 1012.99 1012.96 1013.00 1013.08 1013.16 1013.21 1013.21 1013.15 1013.04 1012.92 1012.81 1012.74 1012.71 1012.73 1012.78 1012.84 1012.89 1012.92 1012.93 1012.94 1012.97 1013.02 1013.12 1013.26 1013.43 1013.61 1013.78
1009.97 1011.35 1012.53 1013.42 1013.97 1014.17 1014.07 1013.76 1013.37 1013.00 1012.76 1012.68 1012.78 1013.01 1013.30 1013.57 1013.77 1013.85 1013.82 1013.69 1013.53 1013.37 1013.26 1013.21 1013.21 1013.24 1013.27 1013.26 1013.21 1013.12 1013.02 1012.92 1012.85 1012.83 1012.86 1012.93 1013.00 1013.07 1013.10 1013.11 1013.10 1013.09 1013.12 1013.18 1013.30 1013.47 1013.66 1013.86 1014.04
1010.42 1011.64 1012.63 1013.35 1013.75 1013.88 1013.78 1013.54 1013.27 1013.06 1012.97 1013.03 1013.21 1013.47 1013.74 1013.97 1014.10 1014.11 1014.02 1013.86 1013.69 1013.53 1013.42 1013.36 1013.35 1013.34 1013.33 1013.28 1013.19 1013.09 1012.98 1012.91 1012.89 1012.92 1013.00 1013.10 1013.19 1013.26 1013.28 1013.27 1013.23 1013.21 1013.23 1013.30 1013.43 1013.60 1013.81 1014.01 1014.19
1010.72 1011.77 1012.58 1013.13 1013.42 1013.49 1013.41 1013.25 1013.11 1013.04 1013.08 1013.24 1013.47 1013.73 1013.97 1014.13 1014.19 1014.15 1014.02 1013.86 1013.70 1013.57 1013.49 1013.46 1013.45 1013.44 1013.40 1013.32 1013.21 1013.09 1013.00 1012.94 1012.95 1013.02 1013.14 1013.26 1013.36 1013.42 1013.42 1013.39 1013.33 1013.29 1013.29 1013.36 1013.49 1013.67 1013.87 1014.07 1014.23
1010.97 1011.85 1012.50 1012.91 1013.10 1013.14 1013.07 1012.99 1012.94 1012.98 1013.11 1013.32 1013.57 1013.81 1013.99 1014.09 1014.09 1014.00 1013.87 1013.73 1013.61 1013.54 1013.52 1013.54 1013.56 1013.56 1013.52 1013.43 1013.31 1013.19 1013.09 1013.04 1013.07 1013.15 1013.28 1013.40 1013.50 1013.54 1013.53 1013.47 1013.39 1013.33 1013.32 1013.38 1013.50 1013.68 1013.87 1014.05 1014.20
1011.24 1011.99 1012.50 1012.79 1012.91 1012.91 1012.87 1012.83 1012.86 1012.96 1013.13 1013.35 1013.57 1013.76 1013.88 1013.91 1013.87 1013.76 1013.65 1013.55 1013.50 1013.50 1013.56 1013.63 1013.70 1013.73 1013.70 1013.61 1013.49 1013.36 1013.25 1013.20 1013.22 1013.31 1013.42 1013.53 1013.61 1013.64 1013.60 1013.52 1013.42 1013.35 1013.33 1013.38 1013.50 1013.67 1013.85 1014.02 1014.14
1011.61 1012.24 1012.64 1012.84 1012.91 1012.89 1012.86 1012.85 1012.91 1013.03 1013.20 1013.39 1013.56 1013.68 1013.73 1013.71 1013.64 1013.54 1013.44 1013.40 1013.41 1013.49 1013.61 1013.75 1013.86 1013.92 1013.91 1013.83 1013.71 1013.57 1013.46 1013.40 1013.41 1013.47 1013.56 1013.65 1013.71 1013.71 1013.66 1013.57 1013.47 1013.39 1013.37 1013.42 1013.54 1013.69 1013.87 1014.03 1014.14
1012.06 1012.60 1012.91 1013.06 1013.09 1013.07 1013.05 1013.06 1013.12 1013.23 1013.37 1013.50 1013.61 1013.66 1013.65 1013.59 1013.50 1013.40 1013.34 1013.33 1013.39 1013.52 1013.69 1013.86 1014.00 1014.08 1014.09 1014.03 1013.91 1013.78 1013.67 1013.60 1013.58 1013.62 1013.69 1013.75 1013.79 1013.79 1013.73 1013.65 1013.56 1013.49 1013.48 1013.53 1013.65 1013.81 1013.99 1014.14 1014.26
1012.53 1012.99 1013.25 1013.36 1013.39 1013.38 1013.38 1013.40 1013.46 1013.54 1013.62 1013.70 1013.73 1013.72 1013.67 1013.58 1013.47 1013.39 1013.34 1013.36 1013.44 1013.58 1013.76 1013.93 1014.08 1014.17 1014.19 1014.15 1014.05 1013.94 1013.84 1013.77 1013.74 1013.76 1013.80 1013.85 1013.88 1013.87 1013.83 1013.76 1013.70 1013.66 1013.67 1013.74 1013.87 1014.04 1014.22 1014.39 1014.52
1012.92 1013.33 1013.56 1013.67 1013.72 1013.75 1013.77 1013.80 1013.84 1013.88 1013.91 1013.92 1013.90 1013.84 1013.75 1013.65 1013.55 1013.47 1013.44 1013.46 1013.53 1013.64 1013.79 1013.94 1014.07 1014.16 1014.19 1014.18 1014.12 1014.04 1013.96 1013.91 1013.88 1013.89 1013.91 1013.95 1013.97 1013.97 1013.96 1013.93 1013.90 1013.90 1013.95 1014.04 1014.19 1014.37 1014.57 1014.75 1014.91
1013.16 1013.52 1013.76 1013.90 1014.00 1014.08 1014.13 1014.17 1014.19 1014.19 1014.15 1014.10 1014.02 1013.93 1013.83 1013.74 1013.66 1013.60 1013.57 1013.58 1013.62 1013.69 1013.78 1013.88 1013.98 1014.05 1014.11 1014.13 1014.12 1014.09 1014.06 1014.03 1014.02 1014.02 1014.04 1014.06 1014.08 1014.10 1014.11 1014.13 1014.15 1014.19 1014.27 1014.40 1014.56 1014.76 1014.97 1015.18 1015.36
1013.18 1013.53 1013.79 1014.01 1014.18 1014.32 1014.42 1014.46 1014.44 1014.37 1014.27 1014.14 1014.01 1013.90 1013.82 1013.75 1013.72 1013.69 1013.68 1013.68 1013.68 1013.69 1013.72 1013.77 1013.83 1013.90 1013.98 1014.04 1014.10 1014.14 1014.16 1014.17 1014.17 1014.17 1014.18 1014.20 1014.22 1014.25 1014.29 1014.34 1014.41 1014.50 1014.61 1014.76 1014.93 1015.14 1015.36 1015.59 1015.80
1012.97 1013.34 1013.68 1014.00 1014.27 1014.48 1014.61 1014.63 1014.56 1014.40 1014.19 1013.98 1013.81 1013.68 1013.62 1013.61 1013.64 1013.68 1013.71 1013.72 1013.70 1013.67 1013.65 1013.64 1013.68 1013.75 1013.86 1013.98 1014.11 1014.22 1014.30 1014.35 1014.37 1014.37 1014.36 1014.36 1014.37 1014.41 1014.47 1014.55 1014.65 1014.78 1014.92 1015.08 1015.25 1015.45 1015.68 1015.91 1016.14
1012.57 1013.01 1013.47 1013.92 1014.31 1014.60 1014.74 1014.72 1014.54 1014.26 1013.92 1013.61 1013.36 1013.22 1013.20 1013.26 1013.39 1013.52 1013.63 1013.68 1013.67 1013.63 1013.57 1013.54 1013.56 1013.64 1013.79 1013.97 1014.17 1014.36 1014.50 1014.58 1014.61 1014.59 1014.56 1014.53 1014.52 1014.55 1014.62 1014.73 1014.86 1015.01 1015.16 1015.32 1015.49 1015.67 1015.87 1016.09 1016.33
1012.06 1012.64 1013.26 1013.87 1014.39 1014.73 1014.86 1014.76 1014.44 1013.98 1013.48 1013.02 1012.70 1012.53 1012.55 1012.70 1012.94 1013.20 1013.42 1013.55 1013.59 1013.56 1013.51 1013.47 1013.49 1013.59 1013.78 1014.02 1014.29 1014.53 1014.72 1014.83 1014.86 1014.83 1014.76 1014.70 1014.66 1014.68 1014.75 1014.87 1015.02 1015.17 1015.33 1015.48 1015.62 1015.77 1015.93 1016.13 1016.36
1011.56 1012.31 1013.13 1013.91 1014.55 1014.94 1015.03 1014.80 1014.30 1013.63 1012.92 1012.29 1011.86 1011.66 1011.71 1011.96 1012.33 1012.74 1013.09 1013.33 1013.45 1013.47 1013.44 1013.42 1013.45 1013.58 1013.80 1014.09 1014.41 1014.70 1014.93 1015.06 1015.08 1015.03 1014.93 1014.84 1014.77 1014.77 1014.84 1014.97 1015.12 1015.29 1015.44 1015.57 1015.68 1015.78 1015.90 1016.05 1016.25
1011.16 1012.11 1013.13 1014.08 1014.82 1015.23 1015.24 1014.85 1014.14 1013.23 1012.29 1011.49 1010.93 1010.69 1010.76 1011.11 1011.61 1012.17 1012.66 1013.03 1013.25 1013.33 1013.34 1013.34 1013.39 1013.54 1013.79 1014.11 1014.47 1014.81 1015.06 1015.20 1015.23 1015.16 1015.04 1014.92 1014.84 1014.83 1014.89 1015.03 1015.20 1015.37 1015.52 1015.64 1015.71 1015.77 1015.83 1015.92 1016.08
1010.94 1012.08 1013.28 1014.37 1015.18 1015.57 1015.47 1014.91 1013.97 1012.82 1011.66 1010.66 1009.99 1009.70 1009.80 1010.22 1010.85 1011.54 1012.18 1012.66 1012.98 1013.13 1013.17 1013.19 1013.25 1013.41 1013.68 1014.03 1014.42 1014.78 1015.06 1015.22 1015.26 1015.19 1015.06 1014.93 1014.85 1014.84 1014.92 1015.07 1015.26 1015.44 1015.60 1015.69 1015.74 1015.75 1015.76 1015.80 1015.91
1010.92 1012.21 1013.54 1014.71 1015.54 1015.87 1015.65 1014.91 1013.75 1012.38 1011.02 1009.87 1009.09 1008.77 1008.89 1009.38 1010.11 1010.91 1011.66 1012.24 1012.63 1012.83 1012.90 1012.93 1013.00 1013.17 1013.44 1013.81 1014.22 1014.60 1014.91 1015.10 1015.15 1015.10 1014.99 1014.87 1014.80 1014.81 1014.90 1015.08 1015.29 1015.50 1015.66 1015.76 1015.78 1015.77 1015.73 1015.72 1015.78
1011.10 1012.45 1013.83 1015.02 1015.80 1016.04 1015.68 1014.77 1013.44 1011.90 1010.39 1009.13 1008.29 1007.95 1008.09 1008.63 1009.43 1010.32 1011.14 1011.79 1012.22 1012.45 1012.54 1012.57 1012.64 1012.80 1013.07 1013.45 1013.88 1014.29 1014.63 1014.85 1014.94 1014.92 1014.83 1014.74 1014.70 1014.73 1014.85 1015.05 1015.29 1015.52 1015.70 1015.80 1015.83 1015.79 1015.73 1015.69 1015.70
1011.42 1012.76 1014.09 1015.20 1015.88 1015.99 1015.49 1014.44 1012.98 1011.33 1009.75 1008.45 1007.60 1007.27 1007.44 1008.02 1008.86 1009.79 1010.64 1011.31 1011.76 1012.00 1012.09 1012.12 1012.18 1012.34 1012.62 1013.00 1013.44 1013.88 1014.25 1014.51 1014.64 1014.66 1014.62 1014.56 1014.54 1014.60 1014.75 1014.97 1015.23 1015.48 1015.68 1015.80 1015.83 1015.80 1015.73 1015.67 1015.65
1011.85 1013.07 1014.25 1015.20 1015.70 1015.66 1015.03 1013.87 1012.35 1010.68 1009.10 1007.83 1007.02 1006.73 1006.94 1007.54 1008.40 1009.33 1010.18 1010.84 1011.28 1011.52 1011.60 1011.63 1011.69 1011.85 1012.13 1012.52 1012.98 1013.44 1013.84 1014.13 1014.30 1014.36 1014.35 1014.32 1014.33 1014.41 1014.57 1014.81 1015.08 1015.34 1015.55 1015.69 1015.74 1015.72 1015.66 1015.60 1015.57
1012.33 1013.33 1014.28 1014.98 1015.27 1015.05 1014.30 1013.09 1011.57 1009.95 1008.45 1007.27 1006.55 1006.32 1006.57 1007.19 1008.03 1008.93 1009.74 1010.38 1010.80 1011.02 1011.10 1011.14 1011.21 1011.38 1011.68 1012.08 1012.55 1013.02 1013.44 1013.75 1013.94 1014.03 1014.04 1014.04 1014.06 1014.14 1014.30 1014.53 1014.80 1015.07 1015.29 1015.44 1015.52 1015.53 1015.48 1015.44 1015.41
1012.81 1013.53 1014.18 1014.59 1014.64 1014.24 1013.38 1012.15 1010.69 1009.18 1007.82 1006.78 1006.16 1006.02 1006.29 1006.90 1007.71 1008.55 1009.31 1009.90 1010.29 1010.51 1010.60 1010.67 1010.77 1010.97 1011.28 1011.70 1012.17 1012.64 1013.06 1013.37 1013.57 1013.66 1013.69 1013.69 1013.71 1013.79 1013.94 1014.16 1014.41 1014.67 1014.90 1015.06 1015.16 1015.19 1015.18 1015.15 1015.14
Thickness
5809 5806 5801 5789 5768 5746 5740 5749 5757 5758 5758 5764 5767 5762 5754 5748 5744 5741 5761 5770 5772 5772 5774 5775 5776 5777 5777 5777 5777 5777 5777 5777 5776 5776 5776 5776 5776 5775 5774 5773 5772 5771 5770 5769 5768 5768 5767 5766 5765
5812 5807 5796 5779 5752 5731 5737 5753 5756 5760 5766 5770 5769 5764 5757 5753 5759 5760 5764 5769 5772 5772 5773 5774 5775 5775 5775 5775 5775 5775 5775 5775 5775 5775 5774 5774 5774 5773 5773 5772 5771 5770 5769 5768 5767 5766 5765 5765 5764
5813 5808 5787 5767 5748 5737 5743 5757 5760 5767 5773 5772 5766 5765 5759 5755 5761 5763 5767 5771 5771 5772 5772 5773 5773 5773 5773 5774 5774 5774 5773 5773 5773 5773 5772 5772 5772 5771 5771 5770 5769 5768 5768 5767 5766 5765 5764 5763 5762
5811 5798 5783 5762 5750 5755 5759 5763 5767 5767 5771 5772 5767 5759 5762 5767 5767 5768 5771 5771 5770 5770 5771 5771 5771 5772 5772 5772 5773 5772 5772 5772 5772 5771 5770 5770 5770 5769 5769 5768 5768 5767 5766 5766 5765 5764 5763 5762 5761
5809 5789 5767 5751 5754 5763 5770 5772 5772 5766 5766 5768 5766 5755 5756 5767 5772 5772 5771 5771 5769 5769 5770 5770 5771 5771 5771 5771 5771 5771 5771 5770 5770 5770 5769 5769 5768 5768 5767 5767 5766 5766 5765 5765 5764 5763 5762 5761 5761
5795 5781 5755 5745 5755 5766 5772 5776 5772 5766 5766 5768 5765 5756 5755 5767 5770 5770 5771 5770 5770 5769 5769 5769 5770 5770 5771 5771 5770 5770 5770 5769 5768 5768 5767 5767 5766 5766 5765 5765 5765 5765 5764 5764 5763 5762 5762 5761 5760
5790 5773 5757 5755 5755 5762 5771 5778 5771 5766 5765 5768 5769 5756 5757 5765 5770 5770 5770 5769 5769 5768 5768 5768 5769 5769 5769 5770 5769 5769 5769 5768 5767 5767 5766 5765 5765 5764 5764 5764 5764 5763 5763 5762 5761 5761 5762 5762 5760
5799 5778 5762 5758 5758 5762 5777 5779 5778 5773 5769 5778 5775 5758 5755 5765 5771 5770 5768 5767 5767 5767 5766 5766 5767 5768 5769 5769 5769 5769 5769 5768 5766 5766 5765 5765 5764 5764 5763 5762 5762 5762 5761 5761 5760 5760 5760 5760 5759
5806 5772 5757 5763 5764 5769 5781 5778 5780 5784 5777 5777 5777 5772 5771 5773 5771 5766 5763 5763 5763 5765 5765 5766 5766 5767 5767 5768 5768 5768 5768 5767 5766 5765 5764 5763 5762 5762 5762 5761 5761 5760 5760 5760 5759 5758 5758 5757 5757
5795 5769 5773 5784 5784 5782 5784 5781 5781 5777 5771 5770 5772 5774 5776 5773 5768 5763 5760 5760 5760 5762 5764 5765 5766 5767 5767 5767 5767 5767 5766 5765 5764 5763 5763 5762 5761 5761 5760 5760 5759 5759 5759 5759 5758 5757 5756 5755 5754
5798 5785 5791 5795 5797 5794 5787 5784 5787 5775 5766 5770 5770 5771 5772 5770 5766 5763 5762 5762 5762 5764 5765 5766 5767 5767 5767 5766 5765 5765 5765 5764 5763 5763 5762 5762 5761 5759 5759 5758 5758 5758 5758 5757 5757 5756 5755 5754 5753
5801 5800 5803 5800 5802 5796 5790 5788 5783 5779 5778 5785 5783 5779 5774 5769 5766 5765 5764 5764 5764 5765 5766 5767 5767 5767 5767 5766 5765 5764 5764 5763 5762 5762 5762 5761 5760 5759 5758 5757 5757 5757 5757 5756 5756 5755 5754 5753 5753
5802 5802 5806 5806 5803 5799 5795 5788 5785 5783 5789 5790 5785 5779 5774 5772 5770 5769 5769 5768 5767 5766 5767 5768 5768 5768 5767 5766 5765 5765 5763 5763 5762 5762 5761 5761 5760 5758 5758 5757 5757 5757 5757 5756 5755 5754 5753 5752 5751
5806 5805 5803 5803 5801 5801 5791 5788 5786 5783 5790 5786 5782 5777 5776 5774 5773 5771 5770 5769 5769 5769 5769 5770 5770 5769 5768 5767 5766 5765 5764 5763 5763 5762 5761 5761 5760 5759 5758 5757 5757 5756 5756 5755 5754 5753 5752 5751 5750
5811 5798 5795 5797 5799 5797 5792 5778 5782 5788 5789 5782 5780 5778 5777 5776 5776 5774 5774 5773 5773 5772 5772 5772 5771 5770 5769 5767 5766 5766 5765 5764 5763 5762 5762 5761 5760 5759 5758 5757 5757 5756 5756 5755 5754 5752 5751 5750 5749
5801 5785 5775 5790 5797 5797 5785 5765 5783 5791 5786 5779 5779 5778 5776 5776 5777 5779 5779 5777 5777 5776 5774 5773 5774 5771 5769 5768 5767 5766 5765 5764 5763 5762 5761 5761 5760 5759 5759 5758 5757 5756 5755 5754 5753 5751 5750 5748 5747
5780 5769 5771 5783 5797 5795 5784 5773 5786 5791 5786 5780 5779 5778 5777 5776 5778 5780 5781 5780 5780 5778 5776 5773 5773 5771 5769 5768 5767 5766 5765 5764 5763 5762 5762 5761 5760 5760 5759 5758 5757 5756 5755 5754 5753 5751 5749 5746 5745
5772 5773 5775 5778 5793 5792 5782 5779 5787 5791 5788 5783 5781 5780 5778 5778 5780 5783 5783 5782 5781 5779 5777 5775 5773 5771 5770 5768 5767 5765 5764 5764 5763 5762 5762 5761 5761 5760 5759 5758 5757 5756 5755 5753 5752 5750 5748 5746 5744
5790 5782 5779 5786 5800 5791 5782 5781 5786 5790 5787 5784 5782 5781 5780 5781 5785 5785 5784 5783 5781 5779 5776 5775 5773 5771 5770 5767 5765 5762 5761 5762 5762 5762 5762 5762 5761 5761 5760 5759 5757 5756 5754 5753 5752 5750 5747 5744 5743
5792 5783 5781 5789 5798 5791 5780 5781 5789 5791 5791 5791 5788 5785 5784 5783 5784 5784 5784 5783 5781 5779 5777 5776 5774 5773 5771 5770 5767 5765 5764 5763 5762 5763 5762 5762 5761 5761 5760 5759 5758 5756 5754 5752 5751 5749 5746 5744 5742
5788 5784 5783 5783 5789 5789 5781 5774 5782 5791 5795 5794 5794 5793 5791 5788 5786 5785 5785 5784 5783 5781 5780 5779 5776 5774 5773 5772 5769 5767 5765 5763 5762 5761 5761 5762 5761 5761 5760 5759 5758 5757 5755 5752 5750 5749 5746 5742 5741
5779 5796 5794 5787 5774 5763 5772 5750 5774 5785 5787 5792 5794 5795 5794 5794 5792 5789 5788 5786 5785 5785 5784 5781 5779 5777 5775 5773 5770 5766 5763 5760 5760 5761 5761 5761 5761 5761 5760 5759 5758 5757 5755 5753 5751 5749 5747 5744 5739
5793 5801 5793 5785 5770 5759 5764 5752 5765 5781 5782 5792 5799 5801 5801 5800 5798 5795 5793 5792 5790 5789 5786 5783 5780 5778 5777 5775 5772 5768 5765 5763 5762 5762 5761 5760 5761 5761 5760 5759 5758 5756 5755 5753 5751 5749 5747 5744 5741
5802 5790 5779 5767 5757 5744 5757 5751 5758 5776 5790 5800 5807 5808 5808 5806 5803 5800 5799 5795 5792 5790 5787 5784 5781 5779 5778 5776 5773 5770 5767 5764 5762 5760 5759 5759 5759 5760 5760 5759 5758 5756 5755 5753 5751 5749 5747 5744 5741
5792 5766 5743 5738 5729 5737 5759 5755 5766 5799 5808 5812 5812 5812 5813 5811 5807 5803 5799 5796 5793 5791 5789 5786 5783 5780 5779 5776 5774 5772 5769 5766 5763 5761 5760 5758 5758 5758 5758 5759 5757 5756 5754 5753 5751 5748 5746 5744 5741
5781 5771 5742 5729 5727 5738 5755 5754 5783 5812 5819 5821 5821 5819 5816 5813 5810 5807 5803 5800 5797 5794 5791 5788 5784 5781 5779 5777 5775 5773 5770 5768 5765 5763 5761 5759 5758 5758 5759 5758 5757 5756 5754 5752 5750 5748 5745 5743 5741
5775 5767 5771 5747 5741 5737 5745 5764 5791 5813 5815 5818 5818 5817 5815 5815 5813 5811 5807 5804 5801 5798 5794 5791 5787 5784 5781 5779 5776 5773 5771 5769 5766 5765 5763 5761 5760 5760 5759 5758 5756 5755 5753 5751 5749 5746 5744 5742 5740
5785 5771 5753 5742 5728 5727 5746 5759 5772 5796 5803 5810 5813 5814 5815 5816 5815 5813 5811 5808 5805 5802 5798 5794 5790 5787 5784 5781 5777 5775 5772 5770 5768 5765 5763 5762 5761 5760 5758 5757 5756 5754 5752 5750 5748 5745 5743 5741 5738
5770 5762 5749 5738 5738 5728 5731 5756 5798 5801 5807 5809 5812 5816 5817 5817 5816 5815 5813 5811 5808 5804 5799 5795 5791 5787 5784 5782 5779 5776 5773 5771 5768 5766 5764 5762 5761 5759 5758 5757 5755 5753 5751 5749 5746 5744 5742 5739 5737
5776 5764 5751 5741 5734 5731 5733 5759 5811 5810 5812 5813 5814 5816 5817 5818 5818 5817 5814 5811 5807 5803 5799 5795 5792 5789 5786 5783 5780 5777 5774 5771 5768 5766 5765 5763 5761 5759 5757 5756 5754 5752 5750 5748 5745 5743 5741 5738 5735